CZ-8A R/B, 100212

Orbit data source: Space-Track

CZ-8A R/B, 100212 is space debris in LEO originally from a launch on Tue, 04 Aug 2026 UTC launched from the Wenchang Satellite Launch Center (WSC). Debris objects in space refer to the collection of defunct objects orbiting the Earth. Examples of debris include non-operational satellites, rocket bodies, and fragments generated from explosions, collisions, or faulty payload assembly.

Loading next visibility...
Identifier
100212, 2026-176K
Orbit
LEO
Country
Flag of CNCN / PRC
Related business
Manufacturer
CALT
Mission
Spacecraft
Bus & Motor
CZ-8A STAGE 2, Unknown motor
Mass
~2,800 kg wet, ~2,800 kg dry
Launch date (UTC)
2026-08-04 (1 month ago)
Launch vehicle
Unknown
Launch site
Wenchang Satellite Launch Center (WSC)
Object type
Payload
Rocket body
Debris
Shape & HBR
CYL, 6.2 m
Radar Cross Section
Large (>1 m²)

Expand to show TLE details & history
Last TLE update: 10 hours ago

TLE from 10 hours ago
0 CZ-8A R/B
1 A0212U 26176K   26249.45362586  .00000171  00000-0  34220-3 0  9992
2 A0212  49.9933 267.6900 0143316 357.7161   2.3058 13.67087753  4539
Epoch: 2026-09-06T10:53Z
TLE epoch observation values (Epoch: 2026-09-06T10:53:13.274Z)
Latitude
-0.00006°
Longitude
118.83612°
Altitude
904.769 km
Speed
7.454 km/s
True Right ascension
17h 50m 45s
True Declination
0° 00' 00"
Sunlit
Object was in daylight at epoch
Visualization orbit readout
Latitude
Unknown
Longitude
Unknown
Altitude
Unknown
Speed
Unknown
Apparent Right ascension
Unknown
Apparent Declination
Unknown
Sunlit
N/A
Visualization observer readout
Local Sidereal Time
12:27:16
Azimuth
Unknown
Elevation
Unknown
Doppler factor
Unknown
Orbital elements
Apogee altitude
1,116.659 km
Perigee altitude
904.87 km
Semi-major axis
7,388.902 km
Eccentricity
0.01433
Inclination
49.9933°
RAAN
267.69°
Arg. of periapsis
357.7161°
True anomaly
2.37308°
Mean anomaly
2.3058°
Eccentric anomaly
2.33932°
Mean motion
3.41722 °/min
Orbital period
105.35 mins
BSTAR
0.0003422
Loading maneuver chart data...
Computing Atmospheric mass density...
Loading historical data...
Loading historical data...
Loading historical data...
Loading historical data...
Loading historical data...
Loading historical data...
Loading historical data...

Documentation

Showing up to 5 results
|